User: anonymous   Login
Location: La Brionne
(46.1728°N, 1.7849°E)
Time: 02:13:13
(UTC+00:00)
Language:

Cosmos 1844 Rocket - Orbit

View from above orbital plane
View from above orbital plane
View from above satellite
View from above satellite

Ground track
Ground track

The orbit data is extracted from the following two-line orbital elements,

1 17974U 87041B   21260.31658146 -.00000257  00000-0 -10354-3 0  9995
2 17974  71.0064 237.4389 0014139 191.5358 270.0640 14.17276090776493
Epoch (UTC): 17 September 2021 07:35:52
Eccentricity: 0.0014139
inclination: 71.0064°
perigee height: 824 km
apogee height: 845 km
right ascension of ascending node: 237.4389°
argument of perigee: 191.5358°
revolutions per day: 14.17276090
mean anomaly at epoch: 270.0640°
orbit number at epoch: 77649

The dashed part of the orbit path shows where the satellite is in the earth's shadow,  

DLR